TimeCDT,TemperatureF,Dew PointF,Humidity,Sea Level PressureIn,VisibilityMPH,Wind Direction,Wind SpeedMPH,Gust SpeedMPH,PrecipitationIn,Events,Conditions,WindDirDegrees,DateUTC
12:52 AM,81.0,71.1,72,29.94,10.0,SSW,10.4,-,N/A,,Clear,210,2013-07-19 05:52:00
1:52 AM,80.1,70.0,71,29.93,10.0,SSW,9.2,-,N/A,,Clear,210,2013-07-19 06:52:00
2:52 AM,79.0,70.0,74,29.91,10.0,SSW,10.4,-,N/A,,Clear,210,2013-07-19 07:52:00
3:52 AM,78.1,70.0,76,29.90,10.0,SSW,9.2,-,N/A,,Clear,210,2013-07-19 08:52:00
4:52 AM,78.1,69.1,74,29.88,10.0,SSW,10.4,-,N/A,,Clear,210,2013-07-19 09:52:00
5:52 AM,78.1,69.1,74,29.89,10.0,SW,11.5,-,N/A,,Clear,220,2013-07-19 10:52:00
6:52 AM,78.1,69.1,74,29.89,10.0,SW,8.1,-,N/A,,Clear,230,2013-07-19 11:52:00
7:52 AM,80.1,69.1,69,29.90,10.0,WSW,10.4,17.3,N/A,,Partly Cloudy,240,2013-07-19 12:52:00
8:52 AM,84.0,70.0,63,29.91,10.0,WSW,11.5,-,N/A,,Clear,240,2013-07-19 13:52:00
9:52 AM,86.0,69.1,57,29.91,10.0,West,17.3,23.0,N/A,,Scattered Clouds,270,2013-07-19 14:52:00
10:52 AM,87.1,70.0,57,29.89,10.0,WSW,11.5,23.0,N/A,,Clear,250,2013-07-19 15:52:00
11:52 AM,89.1,69.1,52,29.88,10.0,WSW,16.1,23.0,N/A,,Clear,240,2013-07-19 16:52:00
12:52 PM,91.9,70.0,48,29.85,10.0,WSW,12.7,23.0,N/A,,Clear,240,2013-07-19 17:52:00
1:52 PM,91.9,69.1,47,29.84,10.0,WSW,16.1,24.2,N/A,,Clear,240,2013-07-19 18:52:00
2:52 PM,93.0,69.1,45,29.82,10.0,SW,15.0,25.3,N/A,,Clear,230,2013-07-19 19:52:00
3:52 PM,93.0,68.0,44,29.81,10.0,WSW,19.6,25.3,N/A,,Clear,240,2013-07-19 20:52:00
4:52 PM,91.9,68.0,45,29.80,10.0,WSW,13.8,21.9,N/A,,Clear,240,2013-07-19 21:52:00
5:52 PM,91.9,69.1,47,29.79,10.0,WSW,12.7,18.4,N/A,,Clear,240,2013-07-19 22:52:00
6:52 PM,88.0,69.1,53,29.78,10.0,WSW,6.9,-,N/A,,Scattered Clouds,240,2013-07-19 23:52:00
7:25 PM,86.0,69.8,58,29.82,10.0,West,18.4,29.9,N/A,Thunderstorm,Thunderstorm,270,2013-07-20 00:25:00
7:38 PM,75.2,64.4,69,29.82,1.8,WNW,31.1,43.7,0.07,Rain-Thunderstorm,Light Thunderstorms and Rain,290,2013-07-20 00:38:00
7:52 PM,73.0,64.9,76,29.80,2.5,North,8.1,20.7,0.16,Rain-Thunderstorm,Thunderstorms and Rain,350,2013-07-20 00:52:00
7:59 PM,73.4,66.2,78,29.81,10.0,NE,3.5,-,0.00,Rain-Thunderstorm,Light Thunderstorms and Rain,40,2013-07-20 00:59:00
8:16 PM,75.2,66.2,73,29.81,10.0,Variable,4.6,-,0.00,Thunderstorm,Partly Cloudy,0,2013-07-20 01:16:00
8:37 PM,75.2,69.8,83,29.82,10.0,Calm,Calm,-,0.00,,Partly Cloudy,0,2013-07-20 01:37:00
8:52 PM,75.9,70.0,82,29.81,10.0,SW,8.1,-,0.00,,Mostly Cloudy,230,2013-07-20 01:52:00
9:52 PM,75.9,70.0,82,29.83,10.0,Calm,Calm,-,N/A,,Scattered Clouds,0,2013-07-20 02:52:00
10:52 PM,73.9,70.0,87,29.84,10.0,NNW,4.6,-,N/A,,Clear,330,2013-07-20 03:52:00
11:52 PM,73.0,68.0,84,29.84,10.0,NNW,4.6,-,N/A,,Clear,330,2013-07-20 04:52:00